Jackson, MI

11:06 AM EDT on October 16, 2019 (GMT -0400)
Jackson County-Reynolds

Weather History for KJXN - August, 2019

Change the Weather History Date:

Saturday, August 10, 2019

  Actual Average Record
Temperature  
Mean Temperature 67 °F 70 °F  
Max Temperature 82 °F 81 °F 92 °F (1949)
Min Temperature 52 °F 60 °F 43 °F (1972)
Degree Days  
Heating Degree Days 0 1  
Month to date heating degree days 0 6  
Since 1 June heating degree days 58 72  
Since 1 July heating degree days 0 17  
Cooling Degree Days 2 6  
Month to date cooling degree days 47 60  
Year to date cooling degree days 452 425  
Since 1 June cooling degree days 442 388  
Growing Degree Days 16 (Base 50)    
Moisture  
Dew Point 56 °F    
Average Humidity 71    
Maximum Humidity 100    
Minimum Humidity 42    
Precipitation  
Precipitation 0.00 in 0.12 in 1.03 in (1966)
Month to date precipitation 0.21 1.16  
Year to date precipitation 20.40 18.61  
Sea Level Pressure  
Sea Level Pressure 30.00 in    
Wind  
Wind Speed 4 mph (WSW)    
Max Wind Speed 13 mph    
Max Gust Speed 19 mph    
Visibility 10 miles    
Events      
T = Trace of Precipitation, MM = Missing Value Source: NWS Daily Summary

Daily Weather History Graph

Daily Weather History Graph

Search for Another Location

Airport or City:

Astronomy

Aug. 10, 2019 Rise Set
Actual Time 6:39 AM EDT 8:46 PM EDT
Civil Twilight 6:08 AM EDT 9:16 PM EDT
Nautical Twilight 5:31 AM EDT 9:54 PM EDT
Astronomical Twilight 4:49 AM EDT 10:35 PM EDT
Moon 5:29 PM EDT (8/10) 2:13 AM EDT (8/10)
Length of Visible Light 15h 07m
Length of Day
14h 06m
Waxing Gibbous, 79% of the Moon is Illuminated
Aug 10
Waxing Gibbous
Aug 15
Full
Aug 23
Last Quarter
Aug 30
New
Sep 5
First Quarter

Hourly Weather History & Observations

Time (EDT) Temp. Heat Index Dew Point Humidity Pressure Visibility Wind Dir Wind Speed Gust Speed Precip Events Conditions
12:56 AM 57.0 °F - 54.0 °F 89% 29.97 in 10.0 mi SSW 4.6 mph - N/A   Clear
1:56 AM 55.9 °F - 54.0 °F 93% 29.97 in 10.0 mi Calm Calm - N/A   Clear
2:56 AM 55.0 °F - 54.0 °F 96% 29.97 in 10.0 mi SW 3.5 mph - N/A   Clear
3:56 AM 54.0 °F - 54.0 °F 100% 29.97 in 10.0 mi SW 4.6 mph - N/A   Clear
4:56 AM 54.0 °F - 53.1 °F 97% 29.98 in 10.0 mi SW 4.6 mph - N/A   Clear
5:56 AM 55.0 °F - 53.1 °F 93% 29.99 in 10.0 mi Calm Calm - N/A   Clear
6:56 AM 53.1 °F - 52.0 °F 96% 30.00 in 10.0 mi SW 4.6 mph - N/A   Clear
7:56 AM 57.9 °F - 55.9 °F 93% 30.01 in 10.0 mi Calm Calm - N/A   Clear
8:56 AM 64.0 °F - 57.9 °F 80% 30.03 in 10.0 mi Calm Calm - N/A   Clear
9:56 AM 70.0 °F - 57.0 °F 63% 30.04 in 10.0 mi Calm Calm - N/A   Clear
10:56 AM 73.0 °F - 57.9 °F 59% 30.03 in 10.0 mi Variable 5.8 mph - N/A   Clear
11:56 AM 73.9 °F - 59.0 °F 59% 30.02 in 10.0 mi West 6.9 mph - N/A   Scattered Clouds
12:56 PM 75.9 °F - 57.0 °F 52% 30.02 in 10.0 mi WSW 8.1 mph - N/A   Mostly Cloudy
1:56 PM 79.0 °F - 55.9 °F 45% 30.01 in 10.0 mi WNW 6.9 mph - N/A   Mostly Cloudy
2:56 PM 80.1 °F 80.1 °F 55.0 °F 42% 29.99 in 10.0 mi West 10.4 mph - N/A   Scattered Clouds
3:56 PM 80.1 °F 80.1 °F 55.0 °F 42% 29.99 in 10.0 mi West 9.2 mph - N/A   Scattered Clouds
4:56 PM 79.0 °F - 57.9 °F 48% 29.99 in 10.0 mi West 5.8 mph - N/A   Clear
5:56 PM 79.0 °F - 55.9 °F 45% 29.98 in 10.0 mi WNW 6.9 mph - N/A   Partly Cloudy
6:56 PM 77.0 °F - 60.1 °F 56% 29.99 in 10.0 mi Variable 3.5 mph - N/A   Mostly Cloudy
7:56 PM 73.9 °F - 62.1 °F 66% 29.99 in 10.0 mi West 3.5 mph - N/A   Scattered Clouds
8:56 PM 73.0 °F - 57.9 °F 59% 30.00 in 10.0 mi West 4.6 mph - N/A   Clear
9:56 PM 68.0 °F - 59.0 °F 73% 30.01 in 10.0 mi Calm Calm - N/A   Clear
10:56 PM 60.1 °F - 59.0 °F 96% 30.02 in 9.0 mi WSW 3.5 mph - N/A   Clear
11:56 PM 60.1 °F - 59.0 °F 96% 30.02 in 10.0 mi SW 3.5 mph - N/A   Clear